Showing default

O3B FM18, 44115

Orbit data source: Space-Track

O3B FM18, 44115 is a payload satellite owned by O3B SES (JE) that was launched on Thu, 04 Apr 2019 UTC via a SOYUZ-ST-B launch vehicle from the French Guiana (FRGUI). Payload-class satellites include a variety of spacecraft equipped with specific instruments for various scientific and technological missions. These include communications satellites like Starlink; space stations such as the ISS; scientific satellites like the Hubble; Earth observation satellites from companies like Planet Labs, Umbra, and HawkEye 360; GPS; miniature CubeSats for education and research; and military/defense satellites.

Loading next visibility...
Identifier
44115, 2019-020D
Orbit
Active
Country
Flag of UnknownUnknown / O3B
Related business
Manufacturer
Thales Alenia
Mission
Operational Commercial Communications
Bus & Motor
PRISMA?, LS-400 AOCS?
Mass
700 kg wet, ~500 kg dry
Launch date (UTC)
2019-04-04 (6 years ago)
Launch vehicle
SOYUZ-ST-B
Launch site
French Guiana (FRGUI)
Object type
Payload
Rocket body
Debris
Shape & HBR
Trap Box + 2 Pan, 6.0 m
Radar Cross Section
21.980 m², Large (>1 m²)

Expand to show TLE details & history
Last TLE update: 19 hours ago

TLE from 19 hours ago
0 O3B FM18
1 44115U 19020D   25258.81557753 -.00000028  00000-0  00000-0 0  9991
2 44115   0.0491 357.0279 0002795 175.8864 187.0899  5.00115114117926
Epoch: 2025-09-15T19:34Z
TLE epoch observation values (Epoch: 2025-09-15T19:34:25.898Z)
Latitude
0.00081°
Longitude
71.3773°
Altitude
8,068.388 km
Speed
5.253 km/s
True Right ascension
00h 00m 00s
True Declination
0° 00' 03"
Sunlit
Object was in full shadow at epoch
Visualization orbit readout
Latitude
Unknown
Longitude
Unknown
Altitude
Unknown
Speed
Unknown
Apparent Right ascension
Unknown
Apparent Declination
Unknown
Sunlit
N/A
Visualization observer readout
Local Sidereal Time
07:00:19
Azimuth
Unknown
Elevation
Unknown
Doppler factor
Unknown
Orbital elements
Apogee altitude
8,072.994 km
Perigee altitude
8,064.918 km
Semi-major axis
14,447.093 km
Eccentricity
0.00028
Inclination
0.0491°
RAAN
357.0279°
Arg. of periapsis
175.8864°
True anomaly
187.08595°
Mean anomaly
187.0899°
Eccentric anomaly
187.08792°
Mean motion
1.24989 °/min
Orbital period
288.02 mins
BSTAR
0
Loading maneuver chart data...
Computing Atmospheric mass density...
Loading historical data...
Loading historical data...
Loading historical data...
Loading historical data...
Loading historical data...
Loading historical data...
Loading historical data...
Other satellites on launch #20 in the year 2019 (2019-04-04 UTC)

Documentation

Showing up to 5 results
|